FW1782 Weather Reports


Display with metric or nautical units.
time (UTC)temp
F
wind
direction
speed
MPH
gust
MPH
rain 1hr
in
rain 24hr
in
rain mn
in
humidity
%
barometer
mb
20260504044523 52 359 0.0 2.0 0.00 0.00 0.00 63 1006.4
20260504043018 54 359 0.0 0.0 0.00 0.00 0.00 60 1006.5
20260504041514 55 359 0.0 0.0 0.00 0.00 0.00 58 1006.8
20260504040114 57 359 0.0 3.0 0.00 0.00 0.00 54 1006.9
20260504034552 57 359 0.0 2.0 0.00 0.00 0.00 51 1007.0
20260504033054 58 359 1.0 3.0 0.00 0.00 0.00 49 1007.2
20260504031546 59 359 0.0 2.0 0.00 0.00 0.00 50 1007.3
20260504030039 60 359 1.0 2.0 0.00 0.00 0.00 48 1007.2
20260504024516 61 359 0.0 3.0 0.00 0.00 0.00 46 1007.3
20260504023010 61 359 3.0 5.0 0.00 0.00 0.00 46 1007.2
20260504021505 62 359 2.0 4.0 0.00 0.00 0.00 44 1007.1
20260504020104 63 359 2.0 6.0 0.00 0.00 0.00 41 1006.9
20260504014553 65 359 3.0 8.0 0.00 0.00 0.00 40 1006.8
20260504013040 66 359 4.0 9.0 0.00 0.00 0.00 38 1006.9
20260504011530 67 359 4.0 9.0 0.00 0.00 0.00 36 1006.6
20260504010008 69 359 5.0 13.0 0.00 0.00 0.00 34 1006.5
20260504004505 70 359 5.0 11.0 0.00 0.00 0.00 32 1006.4
20260504003103 70 359 8.0 16.0 0.00 0.00 0.00 31 1006.4
20260504001603 71 359 10.0 18.0 0.00 0.00 0.00 30 1006.4
20260504000056 72 359 10.0 19.0 0.00 0.00 0.00 29 1006.3
20260503234531 72 359 9.0 16.0 0.00 0.00 0.00 30 1006.2
20260503233029 73 359 9.0 13.0 0.00 0.00 0.00 30 1006.2
20260503231524 73 359 7.0 16.0 0.00 0.00 0.00 30 1006.3
20260503230001 73 359 9.0 23.0 0.00 0.00 0.00 29 1006.1
20260503224602 74 359 11.0 23.0 0.00 0.00 0.00 28 1006.2
20260503223056 74 359 13.0 22.0 0.00 0.00 0.00 27 1006.2
20260503221558 74 359 12.0 26.0 0.00 0.00 0.00 26 1006.1
20260503220057 74 359 9.0 19.0 0.00 0.00 0.00 30 1006.0
20260503214531 74 359 10.0 18.0 0.00 0.00 0.00 30 1006.1
20260503213021 74 359 12.0 20.0 0.00 0.00 0.00 30 1006.0
20260503211514 74 359 15.0 23.0 0.00 0.00 0.00 31 1006.0
20260503210113 74 359 12.0 21.0 0.00 0.00 0.00 31 1006.1
20260503204602 74 359 8.0 18.0 0.00 0.00 0.00 32 1006.1
20260503203049 73 359 9.0 23.0 0.00 0.00 0.00 34 1006.3
20260503201541 73 359 13.0 21.0 0.00 0.00 0.00 35 1006.4
20260503200044 73 359 8.0 22.0 0.00 0.00 0.00 36 1006.6
20260503194517 73 359 10.0 23.0 0.00 0.00 0.00 35 1006.4
20260503193012 73 359 13.0 25.0 0.00 0.00 0.00 37 1006.7
20260503191509 73 359 9.0 20.0 0.00 0.00 0.00 37 1006.6
20260503190109 73 359 11.0 20.0 0.00 0.00 0.00 37 1006.6
20260503184542 73 359 8.0 17.0 0.00 0.00 0.00 38 1006.6
20260503183036 72 359 8.0 21.0 0.00 0.00 0.00 39 1006.8
20260503181534 72 359 6.0 23.0 0.00 0.00 0.00 40 1007.0
20260503180009 71 359 12.0 20.0 0.00 0.00 0.00 40 1007.2
20260503174503 70 359 8.0 15.0 0.00 0.00 0.00 43 1007.3
20260503173208 69 359 7.0 17.0 0.00 0.00 0.00 44 1007.4
20260503171556 69 359 8.0 19.0 0.00 0.00 0.00 45 1007.8
20260503160117 63 359 11.0 28.0 0.00 0.00 0.00 49 1008.1
20260503140105 56 359 7.0 25.0 0.00 0.00 0.00 55 1009.2
20260503110117 51 359 9.0 16.0 0.00 0.00 0.00 64 1010.7
20260503090106 52 359 2.0 8.0 0.00 0.00 0.00 58 1013.1
20260503081548 53 359 1.0 8.0 0.00 0.00 0.00 58 1014.0
20260503071601 53 359 6.0 12.0 0.00 0.00 0.00 53 1014.2
20260503060122 51 359 3.0 8.0 0.00 0.00 0.00 58 1014.1
20260503054602 50 359 3.0 9.0 0.00 0.00 0.00 60 1014.4
20260503053053 49 359 2.0 6.0 0.00 0.00 0.00 61 1014.5
20260503051548 49 359 2.0 6.0 0.00 0.00 0.00 61 1014.5